Total_Precipitation_Accumulation
0.35 0.54 1.04 0.71 0.86 0.74 0.74 0.58 0.73 0.33 0.41 0.43 0.53 0.34 0.50 0.51 0.28 0.15 0.05 0.01 0.04 0.03 0.01 0.02 0.01 0.00 0.00 0.02 0.00 0.01 0.00 0.00 0.00 0.00 0.00 0.00 0.00 0.00 0.00 0.00 0.01 0.02 0.02 0.03 0.02 0.03 0.03 0.04 0.02 0.03 0.05 0.06 0.06 0.06 0.07 0.12 0.14 0.07 0.19 0.10 0.10 0.05 0.02 0.02 0.06 0.02 0.05 0.03 0.02 0.04 0.07 0.05 0.14 0.12 0.16 0.04 0.07 0.04 0.02 0.02 0.02 0.07 0.07 0.02 0.03
0.29 0.36 0.41 0.47 0.62 0.73 0.73 0.61 0.74 0.53 0.33 0.39 0.36 0.42 0.37 0.36 0.22 0.19 0.08 0.05 0.03 0.01 0.01 0.01 0.00 0.00 0.00 0.01 0.01 0.01 0.00 0.00 0.00 0.00 0.00 0.00 0.00 0.00 0.01 0.01 0.02 0.03 0.02 0.02 0.03 0.02 0.06 0.03 0.04 0.02 0.05 0.04 0.04 0.07 0.07 0.08 0.12 0.08 0.10 0.13 0.17 0.16 0.04 0.01 0.03 0.02 0.03 0.05 0.08 0.05 0.02 0.07 0.08 0.06 0.07 0.04 0.05 0.01 0.01 0.01 0.00 0.11 0.14 0.06 0.05
0.18 0.44 0.59 0.49 0.52 0.66 0.54 0.54 0.57 0.64 0.36 0.24 0.27 0.19 0.26 0.42 0.07 0.12 0.10 0.06 0.03 0.02 0.01 0.01 0.00 0.00 0.00 0.00 0.01 0.01 0.00 0.00 0.00 0.00 0.00 0.00 0.00 0.00 0.01 0.00 0.00 0.02 0.03 0.02 0.02 0.07 0.06 0.04 0.03 0.06 0.06 0.02 0.04 0.08 0.07 0.06 0.08 0.10 0.05 0.10 0.25 0.14 0.09 0.02 0.02 0.01 0.06 0.03 0.07 0.07 0.10 0.16 0.04 0.06 0.05 0.03 0.05 0.01 0.03 0.01 0.04 0.08 0.10 0.06 0.07
0.24 0.39 0.81 0.64 0.69 0.48 0.47 0.36 0.53 0.39 0.37 0.21 0.18 0.18 0.31 0.24 0.16 0.10 0.04 0.05 0.03 0.03 0.01 0.01 0.00 0.00 0.00 0.00 0.00 0.01 0.00 0.00 0.00 0.00 0.00 0.00 0.00 0.00 0.00 0.00 0.01 0.01 0.01 0.02 0.03 0.04 0.04 0.02 0.08 0.08 0.05 0.05 0.05 0.03 0.07 0.04 0.04 0.06 0.09 0.09 0.11 0.13 0.06 0.01 0.01 0.04 0.14 0.07 0.11 0.06 0.07 0.06 0.05 0.07 0.03 0.02 0.01 0.01 0.02 0.05 0.04 0.07 0.05 0.05 0.07
0.24 0.48 0.56 0.42 0.43 0.39 0.43 0.38 0.44 0.31 0.19 0.20 0.30 0.17 0.09 0.12 0.11 0.06 0.06 0.05 0.01 0.00 0.01 0.01 0.00 0.00 0.00 0.02 0.00 0.00 0.00 0.00 0.00 0.00 0.00 0.00 0.00 0.00 0.00 0.00 0.00 0.00 0.00 0.03 0.03 0.03 0.02 0.04 0.04 0.06 0.04 0.07 0.04 0.05 0.05 0.06 0.04 0.09 0.07 0.05 0.06 0.07 0.03 0.05 0.03 0.10 0.18 0.08 0.03 0.10 0.08 0.04 0.02 0.05 0.03 0.02 0.03 0.03 0.04 0.10 0.08 0.08 0.17 0.06 0.06
0.13 0.38 0.39 0.25 0.41 0.44 0.38 0.44 0.41 0.27 0.23 0.26 0.29 0.17 0.13 0.08 0.10 0.05 0.07 0.04 0.02 0.00 0.01 0.01 0.01 0.00 0.00 0.00 0.00 0.00 0.00 0.00 0.00 0.00 0.00 0.00 0.00 0.00 0.00 0.00 0.00 0.00 0.01 0.02 0.03 0.02 0.02 0.07 0.05 0.03 0.05 0.08 0.03 0.07 0.05 0.07 0.07 0.07 0.06 0.06 0.08 0.12 0.04 0.04 0.16 0.09 0.14 0.08 0.08 0.05 0.07 0.03 0.01 0.03 0.04 0.02 0.03 0.06 0.08 0.08 0.04 0.05 0.09 0.09 0.09
0.18 0.25 0.22 0.22 0.24 0.34 0.41 0.31 0.24 0.27 0.20 0.21 0.32 0.19 0.12 0.12 0.10 0.04 0.04 0.04 0.02 0.02 0.00 0.02 0.00 0.00 0.00 0.00 0.00 0.00 0.00 0.00 0.00 0.00 0.00 0.00 0.00 0.00 0.00 0.00 0.00 0.01 0.01 0.02 0.02 0.03 0.02 0.02 0.03 0.07 0.03 0.10 0.06 0.11 0.08 0.12 0.11 0.08 0.30 0.11 0.11 0.11 0.20 0.17 0.19 0.28 0.25 0.08 0.11 0.03 0.03 0.05 0.01 0.02 0.05 0.09 0.10 0.09 0.05 0.02 0.06 0.05 0.02 0.07 0.09
0.12 0.23 0.11 0.14 0.11 0.31 0.15 0.23 0.25 0.17 0.17 0.21 0.15 0.14 0.20 0.12 0.12 0.06 0.06 0.04 0.01 0.02 0.01 0.00 0.00 0.00 0.00 0.00 0.00 0.00 0.00 0.00 0.00 0.00 0.00 0.00 0.00 0.00 0.00 0.00 0.01 0.01 0.01 0.00 0.01 0.02 0.02 0.01 0.03 0.03 0.04 0.03 0.09 0.20 0.08 0.08 0.10 0.14 0.37 0.12 0.05 0.14 0.08 0.17 0.12 0.19 0.22 0.11 0.04 0.02 0.03 0.03 0.01 0.01 0.05 0.07 0.11 0.08 0.03 0.02 0.05 0.05 0.02 0.01 0.10
0.08 0.09 0.24 0.14 0.26 0.27 0.14 0.19 0.18 0.24 0.17 0.12 0.13 0.12 0.24 0.10 0.14 0.11 0.03 0.03 0.01 0.00 0.00 0.00 0.00 0.00 0.00 0.00 0.00 0.00 0.00 0.00 0.00 0.00 0.00 0.00 0.00 0.00 0.00 0.00 0.00 0.00 0.01 0.01 0.01 0.01 0.00 0.01 0.02 0.02 0.02 0.03 0.04 0.06 0.03 0.14 0.08 0.10 0.15 0.16 0.13 0.09 0.16 0.14 0.09 0.21 0.16 0.14 0.07 0.02 0.04 0.01 0.02 0.01 0.05 0.06 0.06 0.15 0.07 0.02 0.04 0.02 0.03 0.07 0.06
0.13 0.09 0.07 0.22 0.19 0.15 0.17 0.32 0.16 0.10 0.11 0.11 0.29 0.22 0.06 0.07 0.09 0.05 0.02 0.01 0.00 0.00 0.00 0.00 0.00 0.00 0.00 0.00 0.00 0.00 0.00 0.00 0.00 0.00 0.00 0.00 0.00 0.00 0.00 0.00 0.00 0.01 0.00 0.01 0.02 0.01 0.00 0.00 0.02 0.02 0.02 0.02 0.04 0.06 0.05 0.11 0.17 0.16 0.08 0.12 0.12 0.12 0.20 0.13 0.12 0.03 0.06 0.17 0.09 0.02 0.04 0.03 0.03 0.02 0.01 0.04 0.05 0.03 0.11 0.08 0.10 0.07 0.18 0.07 0.05
0.09 0.09 0.07 0.05 0.06 0.10 0.12 0.10 0.09 0.08 0.05 0.07 0.11 0.09 0.13 0.10 0.05 0.02 0.01 0.00 0.00 0.00 0.00 0.00 0.00 0.00 0.00 0.00 0.00 0.00 0.00 0.00 0.00 0.00 0.00 0.00 0.00 0.00 0.00 0.00 0.00 0.00 0.01 0.00 0.00 0.01 0.00 0.01 0.00 0.03 0.01 0.04 0.02 0.06 0.04 0.11 0.14 0.06 0.10 0.09 0.10 0.09 0.12 0.12 0.06 0.16 0.06 0.09 0.16 0.07 0.05 0.02 0.03 0.02 0.02 0.04 0.06 0.07 0.10 0.13 0.17 0.16 0.12 0.05 0.04
0.08 0.04 0.05 0.10 0.12 0.11 0.11 0.09 0.06 0.08 0.02 0.04 0.06 0.13 0.06 0.06 0.03 0.03 0.02 0.00 0.00 0.00 0.00 0.00 0.00 0.00 0.00 0.00 0.00 0.00 0.00 0.00 0.00 0.00 0.00 0.00 0.00 0.00 0.00 0.00 0.00 0.00 0.01 0.00 0.00 0.01 0.01 0.01 0.02 0.01 0.03 0.02 0.04 0.02 0.07 0.05 0.01 0.10 0.11 0.12 0.09 0.09 0.08 0.06 0.20 0.10 0.07 0.16 0.07 0.13 0.06 0.04 0.03 0.01 0.01 0.00 0.04 0.07 0.10 0.17 0.16 0.09 0.06 0.05 0.02
0.03 0.04 0.08 0.12 0.05 0.09 0.07 0.06 0.04 0.04 0.03 0.02 0.04 0.06 0.06 0.03 0.05 0.03 0.02 0.00 0.00 0.00 0.00 0.00 0.00 0.00 0.00 0.00 0.00 0.00 0.00 0.00 0.00 0.00 0.00 0.00 0.00 0.00 0.00 0.01 0.00 0.01 0.00 0.00 0.02 0.01 0.01 0.01 0.01 0.02 0.05 0.12 0.08 0.03 0.05 0.09 0.12 0.08 0.09 0.06 0.07 0.24 0.09 0.07 0.14 0.08 0.08 0.09 0.09 0.23 0.14 0.02 0.03 0.01 0.01 0.00 0.01 0.03 0.06 0.10 0.12 0.13 0.03 0.03 0.02
0.05 0.08 0.03 0.04 0.05 0.13 0.05 0.07 0.05 0.04 0.04 0.03 0.15 0.08 0.11 0.08 0.04 0.01 0.00 0.00 0.00 0.00 0.00 0.00 0.00 0.00 0.00 0.00 0.00 0.00 0.00 0.00 0.00 0.00 0.00 0.00 0.00 0.00 0.00 0.00 0.00 0.00 0.00 0.00 0.01 0.01 0.02 0.02 0.00 0.08 0.07 0.08 0.11 0.10 0.04 0.06 0.12 0.17 0.09 0.05 0.06 0.09 0.16 0.17 0.08 0.18 0.07 0.29 0.13 0.05 0.04 0.07 0.03 0.01 0.01 0.01 0.00 0.03 0.06 0.12 0.10 0.07 0.05 0.01 0.02
0.05 0.07 0.03 0.09 0.12 0.12 0.10 0.03 0.08 0.06 0.05 0.05 0.09 0.02 0.04 0.05 0.04 0.01 0.00 0.00 0.00 0.00 0.00 0.00 0.00 0.00 0.00 0.00 0.00 0.00 0.00 0.00 0.00 0.00 0.00 0.00 0.00 0.01 0.00 0.00 0.00 0.00 0.00 0.00 0.03 0.02 0.03 0.06 0.04 0.03 0.07 0.18 0.11 0.19 0.06 0.04 0.11 0.26 0.14 0.05 0.11 0.12 0.17 0.28 0.18 0.17 0.08 0.20 0.26 0.25 0.16 0.02 0.00 0.00 0.03 0.01 0.01 0.02 0.07 0.04 0.03 0.08 0.02 0.02 0.02
0.01 0.03 0.07 0.13 0.08 0.09 0.09 0.07 0.04 0.04 0.06 0.07 0.05 0.08 0.02 0.03 0.02 0.00 0.00 0.00 0.00 0.00 0.00 0.00 0.00 0.00 0.01 0.00 0.00 0.00 0.00 0.00 0.00 0.00 0.00 0.00 0.00 0.00 0.00 0.00 0.00 0.00 0.00 0.00 0.14 0.20 0.34 0.19 0.29 0.13 0.17 0.18 0.34 0.13 0.06 0.06 0.10 0.27 0.35 0.20 0.12 0.17 0.14 0.07 0.26 0.18 0.31 0.12 0.20 0.19 0.11 0.07 0.00 0.01 0.04 0.02 0.03 0.04 0.04 0.03 0.03 0.06 0.04 0.01 0.05
0.02 0.05 0.06 0.07 0.07 0.14 0.09 0.11 0.07 0.06 0.07 0.03 0.02 0.02 0.02 0.02 0.01 0.01 0.00 0.00 0.00 0.00 0.00 0.00 0.00 0.00 0.00 0.00 0.00 0.00 0.00 0.00 0.00 0.00 0.01 0.00 0.00 0.00 0.00 0.00 0.00 0.00 0.00 0.04 0.12 0.20 0.31 0.39 0.27 0.46 0.25 0.29 0.23 0.23 0.19 0.08 0.08 0.07 0.15 0.19 0.12 0.08 0.11 0.08 0.25 0.19 0.25 0.07 0.13 0.14 0.22 0.24 0.00 0.00 0.03 0.02 0.01 0.02 0.03 0.07 0.02 0.02 0.06 0.02 0.03
0.03 0.04 0.06 0.08 0.06 0.10 0.11 0.06 0.06 0.05 0.09 0.06 0.06 0.03 0.03 0.02 0.01 0.01 0.02 0.01 0.00 0.00 0.00 0.02 0.00 0.00 0.00 0.00 0.00 0.00 0.00 0.00 0.00 0.00 0.00 0.00 0.00 0.00 0.00 0.00 0.00 0.00 0.01 0.04 0.09 0.29 0.16 0.33 0.44 0.52 0.57 0.48 0.44 0.41 0.32 0.08 0.03 0.15 0.22 0.19 0.21 0.13 0.11 0.10 0.27 0.33 0.11 0.07 0.12 0.17 0.23 0.03 0.00 0.00 0.01 0.01 0.01 0.04 0.02 0.05 0.03 0.02 0.02 0.03 0.06
0.04 0.06 0.08 0.08 0.07 0.08 0.07 0.05 0.06 0.09 0.04 0.06 0.04 0.05 0.02 0.00 0.01 0.00 0.00 0.00 0.00 0.02 0.01 0.00 0.01 0.00 0.01 0.02 0.00 0.00 0.00 0.01 0.00 0.00 0.00 0.00 0.00 0.00 0.00 0.00 0.00 0.00 0.00 0.03 0.11 0.23 0.35 0.38 0.37 0.47 0.44 0.58 0.79 0.51 0.44 0.23 0.13 0.15 0.17 0.25 0.19 0.17 0.15 0.14 0.26 0.21 0.20 0.25 0.13 0.15 0.20 0.00 0.00 0.00 0.01 0.01 0.00 0.03 0.01 0.01 0.02 0.02 0.04 0.04 0.04
0.04 0.08 0.07 0.04 0.03 0.03 0.04 0.04 0.03 0.03 0.05 0.03 0.03 0.03 0.03 0.01 0.01 0.02 0.01 0.01 0.01 0.01 0.01 0.00 0.01 0.02 0.02 0.02 0.01 0.00 0.00 0.01 0.00 0.00 0.00 0.00 0.00 0.01 0.00 0.00 0.00 0.00 0.02 0.02 0.04 0.06 0.19 0.18 0.32 0.47 0.41 0.44 0.58 0.72 0.75 0.43 0.24 0.39 0.25 0.26 0.19 0.28 0.33 0.43 0.48 0.45 0.07 0.13 0.06 0.21 0.04 0.00 0.00 0.00 0.01 0.01 0.00 0.00 0.00 0.01 0.02 0.02 0.03 0.04 0.07
0.09 0.08 0.05 0.03 0.02 0.02 0.03 0.02 0.02 0.02 0.02 0.02 0.02 0.04 0.02 0.01 0.03 0.01 0.01 0.00 0.01 0.01 0.03 0.01 0.03 0.03 0.02 0.00 0.01 0.02 0.05 0.05 0.03 0.04 0.00 0.02 0.00 0.00 0.00 0.00 0.00 0.00 0.00 0.03 0.02 0.06 0.05 0.04 0.10 0.12 0.22 0.44 0.49 0.34 0.35 0.33 0.35 0.38 0.57 0.52 0.62 0.74 0.40 0.43 0.37 0.53 0.29 0.20 0.14 0.15 0.02 0.00 0.00 0.01 0.00 0.04 0.02 0.01 0.01 0.02 0.01 0.02 0.02 0.02 0.03
0.06 0.07 0.06 0.05 0.02 0.02 0.02 0.02 0.03 0.02 0.03 0.04 0.02 0.04 0.06 0.06 0.03 0.06 0.03 0.02 0.01 0.01 0.01 0.01 0.06 0.02 0.05 0.01 0.05 0.04 0.14 0.16 0.15 0.02 0.01 0.01 0.05 0.00 0.00 0.00 0.00 0.00 0.00 0.00 0.00 0.00 0.00 0.00 0.00 0.05 0.10 0.05 0.04 0.04 0.02 0.02 0.08 0.37 0.27 0.27 0.52 0.65 0.38 0.21 0.42 0.41 0.19 0.26 0.20 0.10 0.12 0.00 0.02 0.05 0.08 0.03 0.03 0.05 0.02 0.01 0.01 0.01 0.04 0.03 0.03
0.05 0.05 0.05 0.07 0.01 0.01 0.01 0.03 0.02 0.03 0.02 0.02 0.02 0.03 0.04 0.11 0.05 0.02 0.01 0.01 0.01 0.01 0.00 0.02 0.01 0.01 0.04 0.02 0.04 0.06 0.11 0.17 0.10 0.04 0.02 0.00 0.00 0.00 0.01 0.00 0.00 0.00 0.00 0.00 0.00 0.00 0.00 0.01 0.00 0.01 0.01 0.01 0.04 0.00 0.02 0.01 0.07 0.05 0.14 0.27 0.40 0.42 0.23 0.41 0.41 0.34 0.53 0.26 0.14 0.16 0.03 0.01 0.01 0.10 0.10 0.12 0.08 0.08 0.04 0.03 0.01 0.02 0.01 0.02 0.02
0.02 0.01 0.02 0.06 0.01 0.01 0.01 0.03 0.04 0.02 0.03 0.03 0.02 0.06 0.04 0.03 0.03 0.01 0.02 0.01 0.01 0.01 0.01 0.01 0.01 0.02 0.02 0.02 0.03 0.08 0.06 0.09 0.02 0.00 0.00 0.00 0.01 0.00 0.01 0.00 0.00 0.00 0.00 0.01 0.00 0.00 0.00 0.00 0.01 0.02 0.01 0.03 0.01 0.04 0.01 0.00 0.00 0.02 0.03 0.06 0.12 0.32 0.22 0.08 0.19 0.15 0.07 0.09 0.09 0.07 0.37 0.03 0.02 0.12 0.16 0.11 0.14 0.08 0.11 0.07 0.01 0.01 0.00 0.01 0.01
0.01 0.02 0.02 0.02 0.04 0.01 0.01 0.02 0.01 0.02 0.02 0.03 0.02 0.02 0.03 0.04 0.02 0.01 0.01 0.01 0.02 0.01 0.01 0.01 0.01 0.02 0.03 0.03 0.04 0.10 0.04 0.05 0.05 0.02 0.02 0.01 0.02 0.03 0.07 0.11 0.09 0.18 0.00 0.04 0.06 0.02 0.01 0.01 0.02 0.01 0.03 0.02 0.02 0.01 0.01 0.01 0.00 0.00 0.00 0.00 0.00 0.02 0.02 0.03 0.06 0.13 0.12 0.12 0.18 0.03 0.09 0.27 0.03 0.07 0.13 0.17 0.08 0.09 0.17 0.17 0.06 0.03 0.01 0.01 0.01
0.01 0.02 0.02 0.01 0.01 0.01 0.01 0.01 0.01 0.01 0.01 0.02 0.03 0.03 0.02 0.01 0.04 0.04 0.01 0.01 0.02 0.01 0.01 0.01 0.01 0.01 0.02 0.03 0.04 0.16 0.02 0.03 0.02 0.01 0.01 0.01 0.00 0.01 0.03 0.07 0.02 0.05 0.04 0.05 0.02 0.01 0.01 0.01 0.01 0.00 0.00 0.04 0.01 0.00 0.00 0.01 0.01 0.00 0.00 0.00 0.00 0.00 0.00 0.00 0.02 0.04 0.03 0.04 0.08 0.01 0.02 0.02 0.08 0.11 0.16 0.19 0.19 0.19 0.51 0.22 0.12 0.06 0.02 0.01 0.00
0.00 0.01 0.01 0.01 0.01 0.01 0.01 0.01 0.01 0.01 0.01 0.01 0.05 0.04 0.02 0.02 0.03 0.03 0.04 0.02 0.02 0.02 0.01 0.01 0.02 0.01 0.04 0.02 0.06 0.03 0.02 0.02 0.01 0.03 0.01 0.00 0.01 0.01 0.01 0.05 0.02 0.04 0.06 0.02 0.02 0.01 0.01 0.01 0.00 0.00 0.01 0.01 0.01 0.01 0.00 0.01 0.00 0.00 0.00 0.00 0.00 0.00 0.00 0.00 0.00 0.01 0.00 0.02 0.01 0.00 0.01 0.00 0.03 0.20 0.22 0.28 0.48 0.89 0.35 0.30 0.27 0.16 0.08 0.01 0.00
0.00 0.00 0.00 0.01 0.00 0.00 0.01 0.01 0.01 0.02 0.01 0.01 0.02 0.04 0.03 0.02 0.03 0.05 0.03 0.01 0.02 0.01 0.03 0.02 0.01 0.01 0.02 0.01 0.01 0.02 0.04 0.06 0.10 0.03 0.01 0.02 0.03 0.00 0.01 0.01 0.00 0.04 0.03 0.01 0.01 0.00 0.00 0.00 0.02 0.01 0.00 0.02 0.01 0.00 0.01 0.00 0.00 0.00 0.00 0.00 0.00 0.00 0.00 0.00 0.00 0.00 0.00 0.00 0.04 0.00 0.02 0.01 0.00 0.39 0.94 0.43 1.01 0.56 0.31 0.35 0.23 0.20 0.12 0.06 0.02
0.00 0.00 0.00 0.00 0.00 0.00 0.01 0.01 0.01 0.00 0.01 0.01 0.01 0.02 0.03 0.03 0.03 0.02 0.01 0.02 0.01 0.00 0.02 0.01 0.01 0.01 0.02 0.02 0.01 0.01 0.01 0.01 0.03 0.03 0.03 0.11 0.03 0.01 0.02 0.04 0.02 0.01 0.01 0.01 0.01 0.01 0.00 0.01 0.00 0.00 0.01 0.00 0.01 0.00 0.00 0.01 0.00 0.00 0.00 0.00 0.00 0.00 0.00 0.00 0.00 0.00 0.00 0.00 0.01 0.04 0.00 0.06 0.04 0.16 0.68 0.68 0.50 0.24 0.42 0.38 0.28 0.14 0.10 0.11 0.10
0.00 0.00 0.00 0.00 0.00 0.00 0.00 0.00 0.00 0.00 0.00 0.01 0.01 0.03 0.04 0.04 0.02 0.02 0.01 0.04 0.02 0.01 0.01 0.01 0.01 0.01 0.02 0.01 0.00 0.00 0.01 0.03 0.05 0.01 0.01 0.02 0.01 0.01 0.01 0.00 0.00 0.02 0.00 0.01 0.02 0.01 0.01 0.01 0.00 0.01 0.01 0.03 0.01 0.00 0.00 0.00 0.00 0.00 0.00 0.00 0.00 0.00 0.00 0.00 0.00 0.00 0.00 0.00 0.00 0.04 0.00 0.03 0.02 0.03 0.19 0.62 0.82 0.42 0.44 0.27 0.26 0.12 0.19 0.18 0.25
0.00 0.01 0.00 0.00 0.00 0.00 0.00 0.00 0.00 0.00 0.00 0.00 0.00 0.01 0.02 0.02 0.01 0.01 0.02 0.02 0.01 0.02 0.07 0.13 0.05 0.02 0.02 0.01 0.01 0.01 0.00 0.02 0.04 0.05 0.02 0.01 0.01 0.00 0.01 0.02 0.00 0.01 0.01 0.01 0.01 0.01 0.01 0.03 0.02 0.01 0.01 0.01 0.01 0.02 0.00 0.00 0.00 0.00 0.00 0.00 0.00 0.00 0.00 0.00 0.00 0.00 0.00 0.00 0.00 0.01 0.03 0.01 0.07 0.13 0.32 0.31 0.64 0.45 0.32 0.30 0.30 0.18 0.22 0.33 0.35
0.00 0.00 0.00 0.00 0.00 0.00 0.00 0.00 0.00 0.00 0.00 0.00 0.00 0.00 0.01 0.01 0.01 0.01 0.02 0.01 0.02 0.10 0.12 0.10 0.02 0.01 0.02 0.05 0.06 0.01 0.00 0.00 0.00 0.01 0.01 0.00 0.02 0.02 0.02 0.02 0.01 0.01 0.01 0.01 0.02 0.02 0.02 0.01 0.01 0.05 0.01 0.02 0.02 0.00 0.00 0.00 0.00 0.00 0.00 0.00 0.00 0.00 0.00 0.00 0.00 0.00 0.00 0.00 0.00 0.00 0.00 0.02 0.15 0.54 0.16 0.33 0.30 0.43 0.30 0.18 0.24 0.21 0.20 0.35 0.24
0.00 0.00 0.00 0.00 0.00 0.00 0.00 0.00 0.00 0.00 0.00 0.00 0.00 0.00 0.00 0.00 0.01 0.01 0.00 0.05 0.09 0.03 0.02 0.02 0.02 0.04 0.06 0.01 0.06 0.01 0.00 0.00 0.01 0.01 0.00 0.00 0.01 0.03 0.03 0.01 0.01 0.01 0.00 0.01 0.05 0.02 0.01 0.02 0.03 0.05 0.06 0.02 0.00 0.00 0.00 0.00 0.00 0.00 0.00 0.00 0.00 0.00 0.00 0.00 0.00 0.00 0.00 0.00 0.00 0.00 0.01 0.15 0.89 0.54 0.37 0.11 0.27 0.26 0.26 0.25 0.27 0.26 0.19 0.15 0.27
0.00 0.00 0.00 0.00 0.00 0.00 0.00 0.01 0.00 0.00 0.00 0.00 0.00 0.00 0.00 0.00 0.00 0.03 0.07 0.09 0.12 0.11 0.07 0.06 0.10 0.04 0.01 0.02 0.03 0.03 0.02 0.00 0.01 0.02 0.01 0.03 0.02 0.02 0.03 0.06 0.02 0.02 0.02 0.01 0.05 0.04 0.03 0.04 0.05 0.03 0.03 0.01 0.00 0.00 0.00 0.00 0.00 0.00 0.00 0.00 0.00 0.00 0.00 0.00 0.00 0.00 0.00 0.00 0.00 0.00 0.03 0.08 0.24 0.63 0.31 0.11 0.27 0.32 0.22 0.26 0.22 0.23 0.25 0.12 0.30
0.00 0.00 0.00 0.00 0.00 0.00 0.00 0.00 0.00 0.00 0.00 0.00 0.00 0.00 0.00 0.00 0.00 0.01 0.04 0.15 0.13 0.10 0.11 0.04 0.02 0.02 0.02 0.02 0.03 0.04 0.03 0.04 0.04 0.07 0.04 0.02 0.03 0.02 0.11 0.05 0.12 0.03 0.01 0.04 0.03 0.11 0.04 0.02 0.03 0.07 0.04 0.01 0.00 0.00 0.00 0.00 0.00 0.00 0.00 0.00 0.00 0.00 0.00 0.00 0.00 0.00 0.00 0.00 0.00 0.00 0.00 0.02 0.14 0.74 0.47 0.59 0.55 0.47 0.36 0.36 0.31 0.20 0.30 0.31 0.55
0.00 0.00 0.00 0.00 0.00 0.00 0.00 0.00 0.00 0.00 0.00 0.00 0.00 0.00 0.00 0.00 0.01 0.01 0.06 0.10 0.03 0.12 0.19 0.06 0.03 0.03 0.01 0.01 0.05 0.08 0.09 0.07 0.08 0.09 0.08 0.01 0.02 0.03 0.10 0.06 0.05 0.08 0.03 0.03 0.03 0.11 0.06 0.04 0.05 0.06 0.04 0.02 0.00 0.00 0.00 0.01 0.01 0.00 0.00 0.00 0.00 0.00 0.00 0.00 0.00 0.00 0.00 0.00 0.00 0.00 0.00 0.01 0.01 0.01 0.13 0.17 0.45 0.59 0.15 0.22 0.26 0.33 0.26 0.30 0.36
0.00 0.00 0.00 0.00 0.00 0.00 0.00 0.00 0.00 0.00 0.00 0.00 0.00 0.00 0.00 0.00 0.01 0.00 0.02 0.02 0.12 0.04 0.10 0.03 0.09 0.02 0.08 0.05 0.04 0.08 0.12 0.12 0.06 0.06 0.09 0.06 0.05 0.04 0.09 0.06 0.05 0.07 0.05 0.16 0.04 0.08 0.08 0.05 0.08 0.03 0.01 0.04 0.00 0.00 0.01 0.00 0.00 0.00 0.00 0.00 0.00 0.00 0.00 0.00 0.00 0.00 0.00 0.00 0.00 0.01 0.00 0.01 0.01 0.02 0.06 0.02 0.04 0.06 0.02 0.19 0.31 0.47 0.35 0.31 0.24
0.00 0.00 0.00 0.00 0.00 0.00 0.00 0.00 0.00 0.00 0.00 0.00 0.00 0.00 0.00 0.01 0.01 0.00 0.03 0.02 0.06 0.09 0.03 0.13 0.11 0.07 0.09 0.18 0.13 0.12 0.09 0.14 0.16 0.14 0.17 0.18 0.10 0.11 0.12 0.10 0.10 0.05 0.04 0.07 0.07 0.11 0.10 0.08 0.04 0.03 0.01 0.01 0.01 0.01 0.00 0.00 0.00 0.00 0.00 0.00 0.00 0.00 0.00 0.00 0.00 0.00 0.00 0.00 0.00 0.00 0.00 0.00 0.01 0.02 0.04 0.13 0.11 0.07 0.03 0.01 0.01 0.08 0.27 0.60 0.56
0.00 0.00 0.00 0.00 0.01 0.01 0.00 0.00 0.00 0.00 0.00 0.00 0.00 0.01 0.01 0.03 0.05 0.05 0.03 0.02 0.06 0.07 0.06 0.08 0.08 0.08 0.12 0.07 0.06 0.26 0.18 0.29 0.24 0.36 0.16 0.22 0.12 0.06 0.04 0.08 0.05 0.03 0.13 0.10 0.07 0.13 0.06 0.03 0.02 0.02 0.01 0.01 0.01 0.00 0.00 0.00 0.00 0.00 0.00 0.00 0.00 0.00 0.00 0.00 0.00 0.01 0.00 0.00 0.00 0.00 0.00 0.00 0.00 0.01 0.02 0.05 0.07 0.09 0.10 0.10 0.11 0.10 0.23 0.46 0.53
0.00 0.00 0.00 0.00 0.00 0.00 0.00 0.00 0.00 0.00 0.01 0.01 0.01 0.02 0.01 0.02 0.02 0.02 0.03 0.03 0.02 0.04 0.03 0.04 0.03 0.02 0.12 0.16 0.07 0.15 0.09 0.15 0.13 0.07 0.09 0.05 0.03 0.05 0.06 0.09 0.04 0.04 0.07 0.14 0.11 0.08 0.07 0.06 0.04 0.02 0.03 0.03 0.03 0.01 0.01 0.01 0.00 0.00 0.00 0.00 0.00 0.00 0.00 0.00 0.00 0.00 0.00 0.00 0.00 0.00 0.00 0.00 0.00 0.00 0.00 0.01 0.04 0.06 0.12 0.11 0.10 0.17 0.30 0.50 0.20
0.00 0.00 0.00 0.00 0.00 0.00 0.00 0.00 0.01 0.01 0.02 0.04 0.03 0.02 0.05 0.03 0.02 0.02 0.01 0.01 0.01 0.01 0.01 0.01 0.01 0.07 0.07 0.12 0.04 0.08 0.06 0.06 0.04 0.02 0.03 0.05 0.07 0.06 0.08 0.09 0.12 0.11 0.15 0.12 0.05 0.04 0.06 0.03 0.03 0.02 0.02 0.01 0.00 0.01 0.01 0.01 0.01 0.01 0.00 0.00 0.00 0.00 0.01 0.00 0.00 0.00 0.00 0.00 0.00 0.00 0.00 0.00 0.00 0.00 0.00 0.01 0.01 0.07 0.38 0.35 0.19 0.48 0.22 0.41 0.22
0.00 0.00 0.00 0.00 0.00 0.00 0.00 0.00 0.00 0.01 0.01 0.01 0.02 0.02 0.01 0.01 0.01 0.01 0.01 0.03 0.03 0.02 0.02 0.02 0.01 0.02 0.02 0.02 0.02 0.04 0.03 0.03 0.03 0.03 0.09 0.06 0.05 0.04 0.06 0.12 0.10 0.09 0.06 0.04 0.04 0.09 0.03 0.02 0.01 0.01 0.01 0.01 0.01 0.00 0.02 0.02 0.05 0.02 0.01 0.00 0.00 0.01 0.01 0.00 0.00 0.00 0.00 0.00 0.00 0.00 0.00 0.00 0.00 0.00 0.01 0.04 0.03 0.14 0.48 0.57 0.28 0.26 0.50 0.25 0.22
0.00 0.00 0.00 0.00 0.00 0.00 0.00 0.00 0.01 0.01 0.00 0.01 0.01 0.02 0.01 0.01 0.01 0.02 0.01 0.03 0.02 0.03 0.06 0.07 0.03 0.04 0.02 0.02 0.05 0.03 0.03 0.06 0.06 0.08 0.12 0.13 0.08 0.10 0.08 0.12 0.08 0.02 0.02 0.01 0.01 0.01 0.00 0.01 0.01 0.01 0.01 0.01 0.01 0.01 0.05 0.03 0.03 0.01 0.00 0.00 0.01 0.00 0.05 0.00 0.00 0.00 0.00 0.00 0.00 0.00 0.00 0.00 0.00 0.00 0.01 0.01 0.01 0.01 0.04 0.09 0.14 0.31 0.41 0.21 0.18
0.00 0.00 0.00 0.00 0.00 0.00 0.00 0.00 0.00 0.01 0.01 0.01 0.00 0.00 0.01 0.01 0.00 0.02 0.02 0.03 0.07 0.02 0.04 0.04 0.05 0.03 0.05 0.04 0.05 0.08 0.12 0.15 0.10 0.14 0.16 0.04 0.03 0.03 0.02 0.02 0.01 0.01 0.01 0.00 0.01 0.00 0.01 0.01 0.02 0.02 0.02 0.01 0.01 0.01 0.01 0.01 0.01 0.02 0.02 0.03 0.00 0.00 0.00 0.04 0.00 0.00 0.00 0.00 0.00 0.00 0.00 0.00 0.00 0.00 0.00 0.00 0.00 0.00 0.01 0.00 0.01 0.01 0.03 0.04 0.05
0.00 0.00 0.00 0.00 0.00 0.00 0.00 0.00 0.00 0.00 0.00 0.00 0.01 0.01 0.02 0.02 0.03 0.02 0.02 0.04 0.02 0.03 0.03 0.03 0.03 0.03 0.03 0.04 0.04 0.08 0.11 0.03 0.02 0.01 0.00 0.01 0.01 0.01 0.01 0.01 0.01 0.01 0.01 0.01 0.01 0.01 0.01 0.02 0.03 0.03 0.03 0.03 0.00 0.00 0.01 0.01 0.02 0.04 0.03 0.01 0.00 0.00 0.03 0.01 0.00 0.00 0.00 0.00 0.00 0.00 0.00 0.00 0.00 0.00 0.00 0.00 0.00 0.00 0.00 0.01 0.00 0.01 0.01 0.01 0.01
0.00 0.00 0.00 0.00 0.00 0.00 0.00 0.00 0.00 0.01 0.00 0.00 0.01 0.02 0.03 0.06 0.05 0.06 0.08 0.05 0.10 0.03 0.02 0.01 0.02 0.04 0.02 0.02 0.02 0.02 0.05 0.03 0.01 0.00 0.00 0.00 0.01 0.01 0.01 0.01 0.02 0.01 0.01 0.01 0.01 0.01 0.01 0.01 0.01 0.02 0.02 0.03 0.01 0.00 0.00 0.01 0.03 0.03 0.05 0.03 0.01 0.04 0.02 0.03 0.00 0.11 0.00 0.00 0.00 0.00 0.00 0.00 0.00 0.00 0.00 0.00 0.00 0.00 0.00 0.00 0.00 0.00 0.00 0.00 0.00
0.00 0.00 0.00 0.00 0.00 0.00 0.00 0.00 0.00 0.00 0.00 0.00 0.01 0.01 0.02 0.02 0.03 0.04 0.02 0.02 0.02 0.01 0.00 0.02 0.00 0.00 0.01 0.00 0.00 0.00 0.00 0.00 0.00 0.00 0.00 0.00 0.01 0.01 0.01 0.01 0.01 0.01 0.01 0.01 0.01 0.00 0.00 0.01 0.01 0.01 0.02 0.02 0.02 0.00 0.00 0.00 0.00 0.02 0.02 0.03 0.02 0.02 0.04 0.01 0.03 0.00 0.00 0.00 0.00 0.00 0.00 0.00 0.00 0.00 0.00 0.00 0.00 0.00 0.00 0.00 0.00 0.00 0.00 0.00 0.00
0.00 0.00 0.00 0.00 0.00 0.00 0.00 0.00 0.00 0.00 0.00 0.00 0.01 0.01 0.01 0.01 0.01 0.01 0.01 0.01 0.00 0.01 0.00 0.00 0.00 0.01 0.01 0.00 0.00 0.00 0.01 0.00 0.00 0.00 0.00 0.00 0.01 0.01 0.01 0.01 0.00 0.00 0.00 0.00 0.00 0.00 0.00 0.01 0.01 0.00 0.01 0.02 0.02 0.01 0.00 0.00 0.00 0.00 0.02 0.02 0.02 0.02 0.02 0.01 0.00 0.00 0.00 0.00 0.00 0.00 0.00 0.00 0.00 0.00 0.00 0.00 0.00 0.00 0.00 0.00 0.00 0.00 0.00 0.00 0.00
0.00 0.00 0.00 0.00 0.00 0.00 0.00 0.00 0.00 0.00 0.00 0.00 0.00 0.00 0.00 0.01 0.01 0.01 0.01 0.00 0.01 0.00 0.00 0.00 0.00 0.00 0.00 0.01 0.00 0.00 0.00 0.00 0.00 0.00 0.00 0.01 0.01 0.01 0.01 0.01 0.01 0.00 0.00 0.00 0.00 0.01 0.01 0.01 0.01 0.01 0.00 0.00 0.00 0.01 0.01 0.00 0.00 0.00 0.01 0.02 0.01 0.01 0.00 0.00 0.00 0.00 0.00 0.00 0.00 0.00 0.00 0.00 0.00 0.00 0.00 0.00 0.00 0.00 0.00 0.00 0.00 0.00 0.00 0.00 0.00
0.00 0.00 0.00 0.00 0.00 0.00 0.00 0.00 0.00 0.00 0.00 0.00 0.00 0.00 0.00 0.00 0.00 0.00 0.00 0.01 0.00 0.00 0.00 0.00 0.00 0.00 0.00 0.00 0.00 0.00 0.00 0.00 0.00 0.00 0.00 0.00 0.01 0.01 0.01 0.01 0.00 0.00 0.00 0.00 0.00 0.00 0.00 0.00 0.01 0.00 0.00 0.00 0.00 0.01 0.01 0.01 0.01 0.01 0.01 0.01 0.00 0.00 0.00 0.00 0.00 0.00 0.00 0.00 0.00 0.00 0.00 0.00 0.00 0.00 0.00 0.00 0.00 0.00 0.00 0.00 0.00 0.01 0.00 0.00 0.00
0.00 0.00 0.00 0.00 0.00 0.00 0.00 0.00 0.00 0.00 0.00 0.00 0.00 0.00 0.00 0.00 0.00 0.00 0.00 0.01 0.01 0.00 0.00 0.00 0.00 0.00 0.00 0.00 0.01 0.00 0.00 0.00 0.00 0.00 0.00 0.00 0.00 0.01 0.00 0.00 0.00 0.00 0.00 0.00 0.00 0.00 0.00 0.00 0.00 0.00 0.00 0.00 0.00 0.01 0.00 0.01 0.01 0.01 0.00 0.00 0.00 0.00 0.00 0.00 0.00 0.00 0.00 0.00 0.00 0.00 0.00 0.00 0.00 0.00 0.00 0.00 0.00 0.00 0.00 0.00 0.00 0.00 0.00 0.00 0.00